Regional Weather Roundup
Issued by NWS Albany, NY

Home | Current Version | Previous Version | Text Only | Print | Product List | Glossary On
Versions: 1 2 3 4 5 6 7 8 9 10 11 12 13 14 15 16 17 18 19 20 21 22 23 24 25 26 27
000
ASUS41 KALY 190510
RWRALY

NEW YORK STATE HOURLY WEATHER ROUNDUP
NATIONAL WEATHER SERVICE ALBANY NY
1200 AM EST MON FEB 19 2018

NOTE: "FAIR" INDICATES FEW OR NO CLOUDS BELOW 12,000 FEET WITH NO
SIGNIFICANT WEATHER AND/OR NO OBSTRUCTIONS TO VISIBILITY.

NYZ032-033-038>043-046>054-057>066-NYZ062>081-082-084-190600-
EAST


CITY           SKY/WX    TMP DP  RH WIND       PRES   REMARKS
ALBANY         FAIR      24  18  77 S3        30.48F
GLENS FALLS    FAIR      18  14  84 CALM      30.46S
POUGHKEEPSIE   FAIR      24  20  84 CALM      30.50F
NEWBURGH       CLEAR     30  23  74 CALM      30.50F
MONTGOMERY     FAIR      21  18  88 CALM      30.48F
WHITE PLAINS   FAIR      29  21  72 E3        30.50S
ISLIP          FAIR      32  25  75 E7        30.53R WCI  26
NEW YORK CITY  FAIR      36  26  67 CALM      30.52S
CENTRAL PARK   FAIR      38  22  52 CALM      30.54S
$$

NYZ005>009-017-018-044>046-055-056-190600-
CENTRAL


CITY           SKY/WX    TMP DP  RH WIND       PRES   REMARKS
FULTON         FAIR      31  20  63 VRB6      30.33F WCI  25
SYRACUSE       FAIR      28  21  75 SE8       30.34F WCI  20
ROME           FAIR      25  20  81 E8        30.41F WCI  16
ELMIRA         FAIR      23  22  96 NW3       30.33F
BINGHAMTON     FAIR      27  19  72 SE8       30.33F WCI  19
MONTICELLO     FAIR      23  18  81 CALM      30.45F
$$

NYZ026>034-041>043-087-190600-
NORTH


CITY           SKY/WX    TMP DP  RH WIND       PRES   REMARKS
WATERTOWN      FAIR      27  22  81 CALM      30.34F
FORT DRUM      NOT AVBL
OGDENSBURG     FAIR      28  26  89 S3        30.35F
MASSENA        FAIR      22  20  92 SE3       30.37F
SARANAC LAKE   FLURRIES  20  17  88 SW5       30.30F WCI  13
PLATTSBURGH    FAIR      25  18  74 CALM      30.41R
$$

NYZ001>004-010>016-019>021-085-190600-
WEST


CITY           SKY/WX    TMP DP  RH WIND       PRES   REMARKS
NIAGARA FALLS  FAIR      30  21  69 SE7       30.22F WCI  23
BUFFALO        FAIR      30  23  75 SE7       30.23F WCI  23
DUNKIRK        FAIR      33  24  69 NE7       30.21F WCI  27
JAMESTOWN        N/A    N/A N/A N/A MISG        N/A
WELLSVILLE     FAIR      30  22  72 S10       30.24F WCI  21
ROCHESTER      MOCLDY    31  22  69 S6        30.27F WCI  25
PENN YAN       FAIR      28  21  75 S7        30.30F WCI  21
$$

             KEY
       WCI = WIND CHILL INDEX
       VSB = VISIBILITY
       HX  = HEAT INDEX
$$




USA.gov is the U.S. government's official web portal to all federal, state and local government web resources and services.